Weather History for EGQL - October, 2012

Change the Weather History Date:

Saturday, October 27, 2012

  Actual Average Record
Temperature  
Mean Temperature 38 °F -  
Max Temperature 46 °F 48 °F 64 °F (2005)
Min Temperature 30 °F 38 °F 30 °F (2012)
Degree Days  
Heating Degree Days 27    
Moisture  
Dew Point 31 °F    
Average Humidity 72    
Maximum Humidity 93    
Minimum Humidity 42    
Precipitation  
Precipitation 0.02 in - - ()
Sea Level Pressure  
Sea Level Pressure 30.11 in    
Wind  
Wind Speed 8 mph ()    
Max Wind Speed 13 mph    
Max Gust Speed -    
Visibility 7.7 miles    
Events Rain    
Averages and records for this station are not official NWS values.
T = Trace of Precipitation, MM = Missing Value Source: Averaged Metar Reports

Daily Weather History Graph

Daily Weather History Graph

Search for Another Location

Airport or City:

Trip Planner

Search our weather history database for the weather conditions in past years. The results will help you decide how hot, cold, wet, or windy it might be!

Date:

Astronomy

Oct. 27, 2012 Rise Set
Actual Time 8:09 AM BST 5:40 PM BST
Civil Twilight 7:30 AM BST 6:19 PM BST
Nautical Twilight 6:46 AM BST 7:03 PM BST
Astronomical Twilight 6:02 AM BST 7:46 PM BST
Moon 4:32 PM BST (10/27) 5:31 AM BST (10/27)
Length of Visible Light 10h 49m
Length of Day
9h 30m
Waxing Gibbous, 95% of the Moon is Illuminated
Oct 27
Waxing Gibbous
Oct 29
Full
Nov 7
Last Quarter
Nov 13
New
Nov 20
First Quarter

Hourly Weather History & Observations

Time (BST) Temp. Windchill Dew Point Humidity Pressure Visibility Wind Dir Wind Speed Gust Speed Precip Events Conditions
12:50 AM 35 °F - 28 °F 65% 30.16 in 31 mi NW 5.8 mph - -   Partly Cloudy
12:50 AM 35.6 °F 30.7 °F 28.4 °F 75% 30.15 in 6.2 mi NW 5.8 mph - N/A   Partly Cloudy
1:50 AM 35.6 °F 30.7 °F 26.6 °F 70% 30.15 in 6.2 mi WNW 5.8 mph - N/A   Partly Cloudy
2:50 AM 33.8 °F 27.0 °F 26.6 °F 75% 30.15 in - West 8.1 mph - N/A   Clear
3:50 AM 37 °F - 28 °F 60% 30.17 in 25 mi WNW 6.9 mph - -   Scattered Clouds
3:50 AM 37.4 °F 32.1 °F 28.4 °F 70% 30.15 in - WNW 6.9 mph - N/A   Clear
4:50 AM 33.8 °F 27.7 °F 28.4 °F 81% 30.15 in - West 6.9 mph - N/A   Clear
5:50 AM 32.0 °F 25.6 °F 28.4 °F 87% 30.15 in - West 6.9 mph - N/A   Clear
6:50 AM 32 °F - 27 °F 75% 30.18 in 25 mi West 9.2 mph - -   Scattered Clouds
6:50 AM 32.0 °F 24.2 °F 26.6 °F 80% 30.15 in 6.2 mi West 9.2 mph - N/A   Scattered Clouds
7:50 AM 33.8 °F 26.4 °F 28.4 °F 81% 30.18 in 6.2 mi West 9.2 mph - N/A   Mostly Cloudy
8:50 AM 35.6 °F 29.2 °F 28.4 °F 75% 30.18 in 6.2 mi West 8.1 mph - N/A   Mostly Cloudy
9:50 AM 40 °F - 29 °F 54% 30.20 in 25 mi WNW 10.4 mph - -   Scattered Clouds
9:50 AM 39.2 °F 32.5 °F 28.4 °F 65% 30.18 in 6.2 mi WNW 10.4 mph - N/A   Mostly Cloudy
10:50 AM 41.0 °F 38.0 °F 30.2 °F 65% 30.18 in 6.2 mi WSW 4.6 mph - N/A   Mostly Cloudy
11:50 AM 44.6 °F 39.7 °F 28.4 °F 53% 30.18 in 6.2 mi West 9.2 mph - N/A   Mostly Cloudy
12:50 PM 45 °F - 29 °F 42% 30.19 in 22 mi West 11.5 mph - -   Scattered Clouds
12:50 PM 44.6 °F 38.8 °F 30.2 °F 57% 30.18 in 6.2 mi West 11.5 mph - N/A   Mostly Cloudy
1:50 PM 44.6 °F 38.8 °F 30.2 °F 57% 30.15 in 6.2 mi West 11.5 mph - N/A   Mostly Cloudy
2:50 PM 44.6 °F 38.8 °F 28.4 °F 53% 30.12 in 6.2 mi West 11.5 mph - N/A   Mostly Cloudy
3:50 PM 44 °F - 32 °F 52% 30.13 in 19 mi WSW 11.5 mph - -   Mostly Cloudy
3:50 PM 44.6 °F 38.8 °F 32.0 °F 61% 30.12 in 6.2 mi WSW 11.5 mph - N/A   Mostly Cloudy
4:50 PM 42.8 °F 37.0 °F 32.0 °F 66% 30.09 in 6.2 mi WSW 10.4 mph - N/A   Mostly Cloudy
5:50 PM 41.0 °F 34.7 °F 33.8 °F 76% 30.06 in 6.2 mi WSW 10.4 mph - N/A   Overcast
6:50 PM 41 °F - 35 °F 71% 30.06 in 19 mi WSW 9.2 mph - -   Overcast
6:50 PM 41.0 °F 35.2 °F 35.6 °F 81% 30.06 in 6.2 mi WSW 9.2 mph - N/A   Overcast
7:50 PM 41.0 °F 34.3 °F 37.4 °F 87% 30.01 in 6.2 mi WSW 11.5 mph - N/A Rain Light Rain
8:50 PM 41.0 °F 33.9 °F 39.2 °F 93% 29.98 in 6.2 mi WSW 12.7 mph - N/A Rain Light Rain
9:50 PM 41 °F - 39 °F 91% 29.96 in 16 mi WSW 9.2 mph - - Rain Light Rain
9:50 PM 41.0 °F 35.2 °F 39.2 °F 93% 29.95 in 6.2 mi WSW 9.2 mph - N/A   Overcast
10:50 PM 41.0 °F 34.3 °F 39.2 °F 93% 29.92 in 6.2 mi West 11.5 mph - N/A   Overcast
11:50 PM 42.8 °F 36.2 °F 39.2 °F 87% 29.89 in 6.2 mi West 12.7 mph - N/A   Overcast